Regional Weather Roundup
Issued by NWS

Home | Current Version | Previous Version | Graphics & Text | Print | Product List | Glossary On
Versions: 1 2 3 4 5 6 7 8 9 10 11 12 13 14 15 16 17 18 19 20 21 22 23 24 25 26 27 28 29 30 31 32 33 34 35 36 37 38 39 40 41 42 43 44 45 46 47 48 49 50
000
ASUS43 KLMK 280410
RWRKY
KENTUCKY REGIONAL WEATHER ROUNDUP
NATIONAL WEATHER SERVICE LOUISVILLE KY
1100 PM EST FRI FEB 27 2015

NOTE "FAIR" INDICATES FEW OR NO CLOUDS BELOW 12,000 FEET
WITH NO SIGNIFICANT WEATHER AND/OR OBSTRUCTIONS TO VISIBILITY.

KYZ001>023-026-027-061>063-070>075-280500-
WESTERN AND SOUTH CENTRAL KENTUCKY

CITY           SKY/WX    TMP DP  RH WIND       PRES   REMARKS
PADUCAH        CLOUDY    22  10  60 NE7       30.62F WCI  13
HENDERSON      PTCLDY    19   9  63 NE7       30.66S WCI  10
OWENSBORO      MOCLDY    20   8  59 CALM      30.66S
HOPKINSVILLE   CLOUDY    22  11  63 N10       30.61F WCI  11
BOWLING GREEN  CLOUDY    24   8  50 E7        30.63S WCI  16
GLASGOW        CLOUDY    22   9  58 NE7       30.62S WCI  13
$$

KYZ024-025-028>034-038-045-046-053-280500-
NORTH CENTRAL KENTUCKY

CITY           SKY/WX    TMP DP  RH WIND       PRES   REMARKS
LOUISVILLE/SDF CLOUDY    22   3  44 E8        30.66R WCI  12
LOUISVILLE/LOU CLOUDY    21   2  43 E9        30.66S WCI  11
FORT KNOX      CLOUDY    21   4  46 NE6       30.61S WCI  14
$$

KYZ035>037-039>044-047>052-055>060-089>105-280500-
NORTHEAST KENTUCKY

CITY           SKY/WX    TMP DP  RH WIND       PRES   REMARKS
LEXINGTON      MOCLDY    19   7  59 NE7       30.63S WCI  10
COVINGTON      CLOUDY    16   2  54 N3        30.64S
FRANKFORT      CLOUDY    19   7  59 N3        30.63R
$$

KYZ054-064>069-076>088-106>120-280500-
SOUTHEAST KENTUCKY

CITY           SKY/WX    TMP DP  RH WIND       PRES   REMARKS
JACKSON        MOCLDY    18   6  59 NE3       30.58S
LONDON         MOCLDY    20   4  50 NE7       30.59R WCI  11
SOMERSET       MOCLDY    18   5  57 NE5       30.63R WCI  11
MIDDLESBORO    PTCLDY    22  13  69 CALM      30.57S
MONTICELLO     MOCLDY    20   9  62 NE6       30.63S WCI  12
$$




USA.gov is the U.S. government's official web portal to all federal, state and local government web resources and services.